Location: ??????
(41.3794°N, 22.5014°E)
Time: 07:05:17
(UTC+00:00)

USA 267 - Pass Details

Date: 30 November 2020
Orbit: 1100 x 1107 km, 123.0° (Epoch: 06 January)

Event Time Altitude Azimuth Distance (km) Brightness Sun altitude
Exits shadow 18:18:28 49° 320° (NW) 1,398 3.9 -36.3°
Drops below altitude 10° 18:23:00 10° 314° (NW) 2,962 6.0 -37.2°
Sets 18:25:29 0° 314° (NW) 3,923 6.7 -37.7°
